| time (UTC) | temp F | wind direction | speed MPH | gust MPH | rain 1hr in | rain 24hr in | rain mn in | humidity % | barometer mb |
| 20260504025353 | 85 | 252 | 1.0 | 8.0 | 0.00 | 0.00 | 0.00 | 35 | 1008.3 |
| 20260504024849 | 85 | 245 | 1.0 | 8.0 | 0.00 | 0.00 | 0.00 | 35 | 1008.2 |
| 20260504024405 | 85 | 290 | 0.0 | 3.0 | 0.00 | 0.00 | 0.00 | 35 | 1008.2 |
| 20260504023838 | 85 | 262 | 1.0 | 3.0 | 0.00 | 0.00 | 0.00 | 35 | 1008.2 |
| 20260504023336 | 86 | 255 | 0.0 | 1.0 | 0.00 | 0.00 | 0.00 | 35 | 1008.2 |
| 20260504022901 | 86 | 288 | 0.0 | 4.0 | 0.00 | 0.00 | 0.00 | 34 | 1008.2 |
| 20260504022350 | 86 | 233 | 1.0 | 5.0 | 0.00 | 0.00 | 0.00 | 34 | 1008.2 |
| 20260504021835 | 87 | 32 | 1.0 | 5.0 | 0.00 | 0.00 | 0.00 | 33 | 1008.1 |
| 20260504021332 | 87 | 262 | 0.0 | 4.0 | 0.00 | 0.00 | 0.00 | 33 | 1008.2 |
| 20260504020830 | 87 | 16 | 1.0 | 6.0 | 0.00 | 0.00 | 0.00 | 33 | 1008.2 |
| 20260504020418 | 88 | 281 | 0.0 | 3.0 | 0.00 | 0.00 | 0.00 | 32 | 1008.2 |
| 20260504015833 | 88 | 266 | 1.0 | 3.0 | 0.00 | 0.00 | 0.00 | 31 | 1008.2 |
| 20260504015347 | 89 | 214 | 1.0 | 4.0 | 0.00 | 0.00 | 0.00 | 31 | 1008.2 |
| 20260504014841 | 90 | 301 | 1.0 | 5.0 | 0.00 | 0.00 | 0.00 | 30 | 1008.2 |
| 20260504014405 | 91 | 246 | 1.0 | 5.0 | 0.00 | 0.00 | 0.00 | 29 | 1008.3 |
| 20260504013842 | 91 | 92 | 1.0 | 5.0 | 0.00 | 0.00 | 0.00 | 29 | 1008.2 |
| 20260504013401 | 91 | 105 | 1.0 | 5.0 | 0.00 | 0.00 | 0.00 | 29 | 1008.2 |
| 20260504012859 | 91 | 79 | 2.0 | 7.0 | 0.00 | 0.00 | 0.00 | 28 | 1008.3 |
| 20260504012357 | 91 | 291 | 1.0 | 7.0 | 0.00 | 0.00 | 0.00 | 28 | 1008.4 |
| 20260504011830 | 91 | 287 | 2.0 | 7.0 | 0.00 | 0.00 | 0.00 | 27 | 1008.4 |
| 20260504011358 | 92 | 271 | 1.0 | 5.0 | 0.00 | 0.00 | 0.00 | 27 | 1008.4 |
| 20260504010832 | 92 | 56 | 1.0 | 4.0 | 0.00 | 0.00 | 0.00 | 27 | 1008.4 |
| 20260504010344 | 92 | 146 | 0.0 | 6.0 | 0.00 | 0.00 | 0.00 | 27 | 1008.5 |
| 20260504005850 | 92 | 239 | 1.0 | 6.0 | 0.00 | 0.00 | 0.00 | 26 | 1008.4 |
| 20260504005343 | 92 | 267 | 3.0 | 6.0 | 0.00 | 0.00 | 0.00 | 28 | 1008.4 |
| 20260504004839 | 93 | 285 | 1.0 | 6.0 | 0.00 | 0.00 | 0.00 | 26 | 1008.5 |
| 20260504004405 | 93 | 223 | 1.0 | 6.0 | 0.00 | 0.00 | 0.00 | 27 | 1008.5 |
| 20260504003842 | 92 | 108 | 1.0 | 6.0 | 0.00 | 0.00 | 0.00 | 27 | 1008.6 |
| 20260504003336 | 93 | 54 | 2.0 | 6.0 | 0.00 | 0.00 | 0.00 | 27 | 1008.5 |
| 20260504002834 | 92 | 258 | 0.0 | 6.0 | 0.00 | 0.00 | 0.00 | 28 | 1008.6 |
| 20260504002343 | 92 | 60 | 1.0 | 6.0 | 0.00 | 0.00 | 0.00 | 27 | 1008.6 |
| 20260504001849 | 91 | 293 | 2.0 | 10.0 | 0.00 | 0.00 | 0.00 | 27 | 1008.7 |
| 20260504001345 | 92 | 287 | 2.0 | 10.0 | 0.00 | 0.00 | 0.00 | 26 | 1008.7 |
| 20260504000841 | 92 | 253 | 1.0 | 6.0 | 0.00 | 0.00 | 0.00 | 27 | 1008.7 |
| 20260504000329 | 92 | 65 | 1.0 | 8.0 | 0.00 | 0.00 | 0.00 | 26 | 1008.7 |
| 20260503235832 | 92 | 49 | 2.0 | 8.0 | 0.00 | 0.00 | 0.00 | 26 | 1008.7 |
| 20260503235330 | 92 | 35 | 1.0 | 6.0 | 0.00 | 0.00 | 0.00 | 26 | 1008.7 |
| 20260503234848 | 92 | 118 | 1.0 | 7.0 | 0.00 | 0.00 | 0.00 | 26 | 1008.8 |
| 20260503234339 | 92 | 27 | 4.0 | 7.0 | 0.00 | 0.00 | 0.00 | 26 | 1008.9 |
| 20260503233838 | 92 | 72 | 1.0 | 7.0 | 0.00 | 0.00 | 0.00 | 27 | 1008.9 |
| 20260503233337 | 91 | 295 | 4.0 | 9.0 | 0.00 | 0.00 | 0.00 | 27 | 1008.9 |
| 20260503232834 | 92 | 84 | 5.0 | 9.0 | 0.00 | 0.00 | 0.00 | 24 | 1009.0 |
| 20260503232333 | 92 | 69 | 2.0 | 5.0 | 0.00 | 0.00 | 0.00 | 25 | 1009.0 |
| 20260503231844 | 92 | 82 | 1.0 | 6.0 | 0.00 | 0.00 | 0.00 | 25 | 1009.1 |
| 20260503231351 | 92 | 219 | 2.0 | 5.0 | 0.00 | 0.00 | 0.00 | 23 | 1009.2 |
| 20260503230847 | 93 | 75 | 1.0 | 7.0 | 0.00 | 0.00 | 0.00 | 24 | 1009.4 |
| 20260503230345 | 93 | 35 | 3.0 | 7.0 | 0.00 | 0.00 | 0.00 | 25 | 1009.4 |
| 20260503225840 | 92 | 262 | 2.0 | 7.0 | 0.00 | 0.00 | 0.00 | 26 | 1009.4 |
| 20260503225337 | 92 | 250 | 2.0 | 7.0 | 0.00 | 0.00 | 0.00 | 27 | 1009.5 |
| 20260503224833 | 92 | 97 | 2.0 | 5.0 | 0.00 | 0.00 | 0.00 | 25 | 1009.6 |
| 20260503224328 | 91 | 282 | 1.0 | 5.0 | 0.00 | 0.00 | 0.00 | 25 | 1009.7 |
| 20260503223844 | 91 | 132 | 2.0 | 5.0 | 0.00 | 0.00 | 0.00 | 26 | 1009.7 |
| 20260503223410 | 91 | 58 | 1.0 | 9.0 | 0.00 | 0.00 | 0.00 | 26 | 1009.7 |
| 20260503222842 | 90 | 95 | 5.0 | 13.0 | 0.00 | 0.00 | 0.00 | 26 | 1009.8 |
| 20260503222340 | 90 | 68 | 3.0 | 13.0 | 0.00 | 0.00 | 0.00 | 27 | 1009.8 |
| 20260503221846 | 91 | 32 | 5.0 | 10.0 | 0.00 | 0.00 | 0.00 | 27 | 1009.8 |
| 20260503221344 | 90 | 91 | 2.0 | 5.0 | 0.00 | 0.00 | 0.00 | 28 | 1010.0 |
| 20260503220840 | 90 | 245 | 1.0 | 7.0 | 0.00 | 0.00 | 0.00 | 30 | 1010.1 |
| 20260503220346 | 90 | 90 | 1.0 | 9.0 | 0.00 | 0.00 | 0.00 | 29 | 1010.2 |
| 20260503215850 | 90 | 48 | 3.0 | 9.0 | 0.00 | 0.00 | 0.00 | 29 | 1010.3 |
| 20260503215347 | 91 | 55 | 4.0 | 10.0 | 0.00 | 0.00 | 0.00 | 30 | 1010.2 |
| 20260503214843 | 91 | 28 | 2.0 | 10.0 | 0.00 | 0.00 | 0.00 | 29 | 1010.3 |
| 20260503214339 | 92 | 49 | 3.0 | 9.0 | 0.00 | 0.00 | 0.00 | 32 | 1010.3 |
| 20260503213837 | 91 | 238 | 1.0 | 8.0 | 0.00 | 0.00 | 0.00 | 32 | 1010.3 |
| 20260503213357 | 90 | 248 | 3.0 | 8.0 | 0.00 | 0.00 | 0.00 | 31 | 1010.4 |
| 20260503212853 | 90 | 268 | 2.0 | 8.0 | 0.00 | 0.00 | 0.00 | 32 | 1010.4 |
| 20260503212329 | 90 | 258 | 2.0 | 6.0 | 0.00 | 0.00 | 0.00 | 34 | 1010.5 |
| 20260503211847 | 90 | 98 | 2.0 | 4.0 | 0.00 | 0.00 | 0.00 | 34 | 1010.5 |
| 20260503211410 | 89 | 40 | 1.0 | 6.0 | 0.00 | 0.00 | 0.00 | 36 | 1010.6 |
| 20260503210847 | 89 | 49 | 2.0 | 11.0 | 0.00 | 0.00 | 0.00 | 35 | 1010.6 |
| 20260503210345 | 88 | 249 | 3.0 | 11.0 | 0.00 | 0.00 | 0.00 | 37 | 1010.7 |
| 20260503205840 | 88 | 60 | 2.0 | 9.0 | 0.00 | 0.00 | 0.00 | 37 | 1010.8 |
| 20260503205338 | 88 | 77 | 4.0 | 10.0 | 0.00 | 0.00 | 0.00 | 37 | 1011.0 |
| 20260503204843 | 88 | 182 | 3.0 | 10.0 | 0.00 | 0.00 | 0.00 | 38 | 1011.1 |
| 20260503204400 | 86 | 60 | 3.0 | 12.0 | 0.00 | 0.00 | 0.00 | 36 | 1011.2 |
| 20260503203905 | 86 | 46 | 6.0 | 12.0 | 0.00 | 0.00 | 0.00 | 37 | 1011.2 |
| 20260503203337 | 87 | 129 | 5.0 | 10.0 | 0.00 | 0.00 | 0.00 | 37 | 1011.2 |
| 20260503202833 | 87 | 84 | 2.0 | 7.0 | 0.00 | 0.00 | 0.00 | 37 | 1011.3 |
| 20260503202349 | 87 | 35 | 2.0 | 9.0 | 0.00 | 0.00 | 0.00 | 38 | 1011.4 |
| 20260503201905 | 87 | 60 | 5.0 | 9.0 | 0.00 | 0.00 | 0.00 | 36 | 1011.4 |
| 20260503201342 | 87 | 115 | 1.0 | 7.0 | 0.00 | 0.00 | 0.00 | 40 | 1011.6 |
| 20260503200900 | 85 | 278 | 2.0 | 7.0 | 0.00 | 0.00 | 0.00 | 40 | 1011.6 |
| 20260503200336 | 85 | 2 | 4.0 | 7.0 | 0.00 | 0.00 | 0.00 | 41 | 1011.7 |
| 20260503195833 | 85 | 58 | 2.0 | 7.0 | 0.00 | 0.00 | 0.00 | 39 | 1011.7 |
| 20260503195350 | 85 | 271 | 2.0 | 7.0 | 0.00 | 0.00 | 0.00 | 42 | 1011.8 |
| 20260503194853 | 84 | 341 | 1.0 | 5.0 | 0.00 | 0.00 | 0.00 | 41 | 1011.9 |
| 20260503194329 | 84 | 5 | 3.0 | 7.0 | 0.00 | 0.00 | 0.00 | 41 | 1011.9 |
| 20260503193846 | 83 | 45 | 3.0 | 7.0 | 0.00 | 0.00 | 0.00 | 42 | 1012.0 |
| 20260503193344 | 83 | 96 | 1.0 | 8.0 | 0.00 | 0.00 | 0.00 | 42 | 1012.0 |
| 20260503192911 | 83 | 60 | 4.0 | 7.0 | 0.00 | 0.00 | 0.00 | 41 | 1012.2 |
| 20260503192347 | 83 | 11 | 3.0 | 5.0 | 0.00 | 0.00 | 0.00 | 41 | 1012.3 |
| 20260503191843 | 83 | 42 | 2.0 | 5.0 | 0.00 | 0.00 | 0.00 | 44 | 1012.3 |
| 20260503191341 | 82 | 106 | 1.0 | 6.0 | 0.00 | 0.00 | 0.00 | 43 | 1012.4 |
| 20260503190839 | 81 | 68 | 2.0 | 8.0 | 0.00 | 0.00 | 0.00 | 44 | 1012.5 |
| 20260503190333 | 81 | 34 | 4.0 | 8.0 | 0.00 | 0.00 | 0.00 | 43 | 1012.6 |
| 20260503185904 | 81 | 145 | 3.0 | 7.0 | 0.00 | 0.00 | 0.00 | 43 | 1012.7 |
| 20260503185410 | 82 | 229 | 2.0 | 7.0 | 0.00 | 0.00 | 0.00 | 43 | 1012.6 |
| 20260503184845 | 81 | 77 | 1.0 | 3.0 | 0.00 | 0.00 | 0.00 | 45 | 1012.7 |
| 20260503184343 | 81 | 10 | 0.0 | 6.0 | 0.00 | 0.00 | 0.00 | 46 | 1012.8 |
| 20260503183840 | 80 | 319 | 3.0 | 6.0 | 0.00 | 0.00 | 0.00 | 45 | 1012.9 |
| 20260503183339 | 79 | 195 | 1.0 | 5.0 | 0.00 | 0.00 | 0.00 | 48 | 1012.9 |
| 20260503182837 | 79 | 245 | 3.0 | 5.0 | 0.00 | 0.00 | 0.00 | 49 | 1012.9 |
| 20260503182357 | 79 | 94 | 3.0 | 5.0 | 0.00 | 0.00 | 0.00 | 48 | 1013.0 |
| 20260503181849 | 79 | 29 | 2.0 | 6.0 | 0.00 | 0.00 | 0.00 | 48 | 1013.0 |
| 20260503181346 | 78 | 58 | 3.0 | 6.0 | 0.00 | 0.00 | 0.00 | 49 | 1013.1 |
| 20260503180842 | 79 | 37 | 1.0 | 5.0 | 0.00 | 0.00 | 0.00 | 49 | 1013.1 |
| 20260503180342 | 78 | 129 | 2.0 | 5.0 | 0.00 | 0.00 | 0.00 | 49 | 1013.1 |
| 20260503175840 | 77 | 126 | 0.0 | 6.0 | 0.00 | 0.00 | 0.00 | 54 | 1013.1 |
| 20260503175338 | 75 | 84 | 3.0 | 6.0 | 0.00 | 0.00 | 0.00 | 51 | 1013.1 |
| 20260503174828 | 75 | 37 | 3.0 | 7.0 | 0.00 | 0.00 | 0.00 | 52 | 1013.2 |
| 20260503174354 | 74 | 7 | 3.0 | 7.0 | 0.00 | 0.00 | 0.00 | 53 | 1013.2 |
| 20260503173852 | 75 | 55 | 3.0 | 7.0 | 0.00 | 0.00 | 0.00 | 53 | 1013.4 |
| 20260503173350 | 74 | 23 | 2.0 | 5.0 | 0.00 | 0.00 | 0.00 | 54 | 1013.4 |
| 20260503172844 | 74 | 114 | 2.0 | 6.0 | 0.00 | 0.00 | 0.00 | 54 | 1013.5 |
| 20260503172410 | 74 | 37 | 3.0 | 6.0 | 0.00 | 0.00 | 0.00 | 54 | 1013.6 |
| 20260503171846 | 73 | 82 | 1.0 | 5.0 | 0.00 | 0.00 | 0.00 | 56 | 1013.6 |
| 20260503171402 | 72 | 27 | 3.0 | 5.0 | 0.00 | 0.00 | 0.00 | 56 | 1013.7 |
| 20260503170901 | 72 | 45 | 1.0 | 6.0 | 0.00 | 0.00 | 0.00 | 59 | 1013.7 |
| 20260503170337 | 71 | 70 | 3.0 | 6.0 | 0.00 | 0.00 | 0.00 | 57 | 1013.7 |
| 20260503150843 | 60 | 103 | 0.0 | 1.0 | 0.00 | 0.00 | 0.00 | 85 | 1014.1 |
| 20260503150357 | 59 | 250 | 0.0 | 0.0 | 0.00 | 0.00 | 0.00 | 87 | 1014.1 |
| 20260503131332 | 52 | 50 | 0.0 | 0.0 | 0.00 | 0.00 | 0.00 | 95 | 1013.8 |
| 20260503130829 | 52 | 50 | 0.0 | 1.0 | 0.00 | 0.00 | 0.00 | 94 | 1013.8 |
| 20260503130348 | 52 | 49 | 0.0 | 1.0 | 0.00 | 0.00 | 0.00 | 94 | 1013.9 |
| 20260503110348 | 53 | 65 | 0.0 | 0.0 | 0.00 | 0.00 | 0.00 | 93 | 1014.2 |
| 20260503090334 | 55 | 68 | 0.0 | 0.0 | 0.00 | 0.00 | 0.00 | 91 | 1014.4 |
| 20260503081355 | 56 | 41 | 0.0 | 0.0 | 0.00 | 0.01 | 0.00 | 90 | 1014.5 |
| 20260503080832 | 56 | 41 | 0.0 | 0.0 | 0.00 | 0.01 | 0.00 | 90 | 1014.5 |
| 20260503080330 | 56 | 42 | 0.0 | 0.0 | 0.00 | 0.01 | 0.00 | 90 | 1014.6 |
| 20260503072836 | 57 | 356 | 0.0 | 0.0 | 0.00 | 0.01 | 0.00 | 89 | 1014.5 |
| 20260503072328 | 57 | 358 | 0.0 | 1.0 | 0.00 | 0.01 | 0.00 | 89 | 1014.5 |
| 20260503071835 | 57 | 358 | 0.0 | 1.0 | 0.00 | 0.01 | 0.00 | 89 | 1014.6 |
| 20260503071331 | 58 | 358 | 0.0 | 1.0 | 0.00 | 0.01 | 0.00 | 89 | 1014.6 |
| 20260503070830 | 58 | 358 | 0.0 | 1.0 | 0.00 | 0.01 | 0.00 | 88 | 1014.5 |
| 20260503070343 | 58 | 319 | 0.0 | 1.0 | 0.00 | 0.01 | 0.00 | 88 | 1014.6 |
| 20260503054829 | 61 | 63 | 1.0 | 3.0 | 0.00 | 0.01 | 0.01 | 83 | 1014.8 |
| 20260503054347 | 61 | 74 | 1.0 | 3.0 | 0.00 | 0.01 | 0.01 | 83 | 1014.6 |
| 20260503053845 | 61 | 74 | 2.0 | 3.0 | 0.00 | 0.01 | 0.01 | 83 | 1014.7 |
| 20260503053411 | 61 | 98 | 1.0 | 1.0 | 0.00 | 0.01 | 0.01 | 83 | 1014.6 |
| 20260503052843 | 61 | 203 | 0.0 | 1.0 | 0.00 | 0.01 | 0.01 | 82 | 1014.6 |
| 20260503052340 | 61 | 23 | 0.0 | 1.0 | 0.00 | 0.01 | 0.01 | 82 | 1014.5 |
| 20260503051846 | 61 | 23 | 0.0 | 1.0 | 0.00 | 0.01 | 0.01 | 82 | 1014.4 |
| 20260503051341 | 62 | 240 | 0.0 | 3.0 | 0.00 | 0.01 | 0.01 | 81 | 1014.4 |
| 20260503050839 | 62 | 240 | 1.0 | 3.0 | 0.00 | 0.01 | 0.01 | 81 | 1014.5 |
| 20260503050336 | 62 | 210 | 2.0 | 3.0 | 0.00 | 0.01 | 0.01 | 80 | 1014.5 |
| 20260503045857 | 63 | 229 | 1.0 | 2.0 | 0.00 | 0.01 | 0.01 | 79 | 1014.3 |
| 20260503045333 | 63 | 235 | 1.0 | 2.0 | 0.00 | 0.01 | 0.01 | 78 | 1014.3 |
| 20260503044829 | 63 | 322 | 0.0 | 4.0 | 0.00 | 0.01 | 0.01 | 79 | 1014.3 |
| 20260503044346 | 63 | 21 | 0.0 | 4.0 | 0.00 | 0.01 | 0.01 | 79 | 1014.4 |
| 20260503043843 | 63 | 8 | 0.0 | 4.0 | 0.00 | 0.01 | 0.01 | 79 | 1014.6 |
| 20260503043336 | 63 | 32 | 2.0 | 5.0 | 0.00 | 0.01 | 0.01 | 78 | 1014.7 |
| 20260503042837 | 63 | 86 | 3.0 | 6.0 | 0.00 | 0.01 | 0.01 | 78 | 1014.7 |
| 20260503042335 | 63 | 70 | 4.0 | 6.0 | 0.00 | 0.01 | 0.01 | 78 | 1014.6 |
| 20260503041832 | 63 | 56 | 2.0 | 4.0 | 0.00 | 0.01 | 0.01 | 78 | 1014.5 |
| 20260503041329 | 63 | 56 | 2.0 | 4.0 | 0.00 | 0.01 | 0.01 | 78 | 1014.4 |
| 20260503040845 | 63 | 37 | 2.0 | 3.0 | 0.00 | 0.01 | 0.01 | 78 | 1014.5 |
| 20260503040341 | 63 | 77 | 1.0 | 2.0 | 0.00 | 0.01 | 0.01 | 78 | 1014.5 |
| 20260503035846 | 63 | 19 | 0.0 | 2.0 | 0.00 | 0.01 | 0.01 | 79 | 1014.4 |
| 20260503035343 | 63 | 18 | 1.0 | 2.0 | 0.00 | 0.01 | 0.01 | 78 | 1014.4 |
| 20260503034901 | 63 | 68 | 0.0 | 2.0 | 0.00 | 0.01 | 0.01 | 78 | 1014.5 |
| 20260503034337 | 64 | 359 | 1.0 | 2.0 | 0.00 | 0.01 | 0.01 | 77 | 1014.5 |
| 20260503033855 | 64 | 60 | 1.0 | 3.0 | 0.00 | 0.01 | 0.01 | 77 | 1014.5 |
| 20260503033330 | 64 | 85 | 2.0 | 3.0 | 0.00 | 0.01 | 0.01 | 76 | 1014.5 |
| 20260503032848 | 64 | 72 | 1.0 | 3.0 | 0.00 | 0.01 | 0.01 | 76 | 1014.5 |
| 20260503032344 | 64 | 108 | 1.0 | 3.0 | 0.00 | 0.01 | 0.01 | 76 | 1014.6 |
| 20260503031841 | 64 | 107 | 1.0 | 2.0 | 0.00 | 0.01 | 0.01 | 75 | 1014.4 |
| 20260503031328 | 65 | 91 | 0.0 | 3.0 | 0.00 | 0.01 | 0.01 | 75 | 1014.4 |
| 20260503030835 | 65 | 167 | 0.0 | 3.0 | 0.00 | 0.01 | 0.01 | 75 | 1014.3 |
| 20260503030332 | 65 | 35 | 2.0 | 3.0 | 0.00 | 0.01 | 0.01 | 74 | 1014.1 |